Starlink 6050

operational
NORAD ID: 56458 Int'l Des: 2023-064 Owner: SPXS Country: US Constellation: starlink
LEOCIRCULAR

About Starlink 6050

Description loading...

Live Position

Loading 3D Globe...

Upcoming Passes

Altitude History

Altitude vs Time

uPlot chart will show altitude changes over time

Two-Line Element Set

1 56458U 23064L 25302.90232623 -.00003145 00000-0 -25603-3 0 9996
2 56458 70.0042 114.2885 0002612 269.4128 90.6732 14.98308975135656
Epoch: Oct 29, 2025 • Age: 27 hours

Current Status

Altitude 577.1 km
Velocity 7.57 km/s
Sub-Earth Point -14.75°S, 105.02°W
Launch Date May 10, 2023
Age 2.4 years
Type internet

Technical Details

Classification Payload
Mass 305.00 kg
Dry Mass 290.00 kg
Total Mass 305.00 kg
Length 0.20 m
Diameter 2.80 m
Span 9.00 m
Shape Box + pan
Manufacturer SPXS
Bus Type Starlink
Phase Status In Orbit
Owner/State SPXS/US

Large Constellations

Loading constellations...